Regional Weather Roundup
Issued by NWS

Home | Current Version | Previous Version | Text Only | Print | Product List | Glossary On
Versions: 1 2 3 4 5 6 7 8 9 10 11 12 13 14 15 16 17 18 19 20 21 22 23 24 25 26 27 28 29 30 31 32 33 34 35 36 37 38 39 40 41 42 43 44 45 46 47 48 49 50
000
ASUS44 KMEG 272000
RWRTN
TENNESSEE HOURLY STATE WEATHER ROUNDUP
NATIONAL WEATHER SERVICE MEMPHIS TN
200 PM CST TUE JAN 27 2015

TNZ002-004-019-021-049-052-054-088>092-272100-
WEST TENNESSEE

CITY           SKY/WX    TMP DP  RH WIND       PRES   REMARKS
MEMPHIS INTL   SUNNY     57  34  41 N7        30.11F
NWS MEMPHIS      N/A     55 N/A N/A MISG        N/A
JACKSON        SUNNY     51  32  48 NW14      30.11S
DYERSBURG      SUNNY     48  27  43 N14G20    30.14S
UNION CITY     MOSUNNY   45  34  65 N16       30.12S
PARIS          PTSUNNY   43  30  61 N8        30.11S
LEXINGTON      PTSUNNY   48  30  49 N10       30.08S
SAVANNAH         N/A     52  34  50 N12       30.09S
$$

TNZ008-025-027-028-033-062-065-066-272100-
NORTH MIDDLE TENNESSEE

CITY           SKY/WX    TMP DP  RH WIND       PRES   REMARKS
NASHVILLE      CLOUDY    39  31  72 NW9       30.10R WCI  33
CLARKSVILLE    CLOUDY    39  31  72 N13       30.11R WCI  31
COOKEVILLE     CLOUDY    36  32  87 NW8       30.03R WCI  29
CROSSVILLE     CLOUDY    33  28  81 W9        29.99R WCI  25
$$

TNZ061-075-076-078-094-096-097-272100-
SOUTH MIDDLE TENNESSEE

CITY           SKY/WX    TMP DP  RH WIND       PRES   REMARKS
FAYETTEVILLE   PTSUNNY   45  28  53 N16G25    30.03S
TULLAHOMA      CLOUDY    39  30  70 N14       30.04S WCI  31
WINCHESTER     CLOUDY    39  30  70 N9        30.05R WCI  33
MCMINNVILLE    CLOUDY    36  34  93 N6        30.05R WCI  31
SHELBYVILLE    CLOUDY    41  34  75 N8        30.07R
$$

TNZ017-018-042-046-047-272100-
NORTHEAST TENNESSEE

CITY           SKY/WX    TMP DP  RH WIND       PRES   REMARKS
TRI CITIES     CLOUDY    34  22  61 NW10      29.93S WCI  26
ELIZABETHTON   CLOUDY    30  21  69 VRB6      29.92R WCI  24
$$

TNZ012-013-036-069-073-074-272100-
CENTRAL EAST TENNESSEE

CITY           SKY/WX    TMP DP  RH WIND       PRES   REMARKS
KNOXVILLE      CLOUDY    35  29  78 N6        30.01S WCI  30
OAK RIDGE      CLOUDY    37  29  72 CALM      30.02S
GATLINBURG     CLOUDY    34  27  75 W6        30.00R WCI  29
MORRISTOWN     MOCLDY    34  28  80 W8        29.98R WCI  27
$$

TNZ083-085-099-272100-
SOUTHEAST TENNESSEE

CITY           SKY/WX    TMP DP  RH WIND       PRES   REMARKS
CHATTANOOGA    PTSUNNY   42  31  64 N12       30.03S
$$

SKY/WX REPORTED AS FAIR MEANS FEW OR NO CLOUDS BELOW
12 THOUSAND FEET.




USA.gov is the U.S. government's official web portal to all federal, state and local government web resources and services.